Estación de San Felipe

Ultimos registro cada 15 minutos 31
Estación Fecha / Hora Temperatura Humedad Lluvia Velocidad Dirección Radiación Presion
31 San Felipe 06-05-2026 07:30 4,9 97,5 0 0 345 1,9 940,1
30 San Felipe 06-05-2026 07:15 4,8 97,3 0 0 345 0,6 940
29 San Felipe 06-05-2026 07:00 4,6 97,2 0 0 345 0,6 939,6
28 San Felipe 06-05-2026 06:45 4,7 96,9 0 0 345 0,6 939,4
27 San Felipe 06-05-2026 06:30 4,7 96,6 0 0 345 0,6 939,4
26 San Felipe 06-05-2026 06:15 5,1 96,7 0 0 345 0,6 939,2
25 San Felipe 06-05-2026 06:00 4,7 96,7 0 0 345 0,6 939
24 San Felipe 06-05-2026 05:45 4,7 96,5 0 0 345 0,6 938,7
23 San Felipe 06-05-2026 05:30 5,7 96,5 0 0 345 0,6 938,5
22 San Felipe 06-05-2026 05:15 5,7 96 0 0 345 0,6 938,3
21 San Felipe 06-05-2026 05:00 6 96,1 0 0 345 0,6 938,3
20 San Felipe 06-05-2026 04:45 6,2 95,6 0 0 345 0,6 938
19 San Felipe 06-05-2026 04:30 7,2 95,4 0 0 345 0,6 938,1
18 San Felipe 06-05-2026 04:15 7 95,4 0 0 345 0,6 938
17 San Felipe 06-05-2026 04:00 7,2 95 0 0 334 0,6 938
16 San Felipe 06-05-2026 03:45 7,2 94,7 0 0 316 0,6 938,1
15 San Felipe 06-05-2026 03:30 7,5 94,3 0 0 316 0,6 937,9
14 San Felipe 06-05-2026 03:15 8,2 94 0 0 316 0,6 937,9
13 San Felipe 06-05-2026 03:00 8,2 93,5 0 0 316 0,6 938
12 San Felipe 06-05-2026 02:45 8,8 93,4 0 0 316 0,6 937,9
11 San Felipe 06-05-2026 02:30 9 92,9 0 0 316 0,6 938,4
10 San Felipe 06-05-2026 02:15 9,1 93 0 0 316 0,6 938,4
9 San Felipe 06-05-2026 02:00 9,3 92,7 0 0 316 0,6 938,4
8 San Felipe 06-05-2026 01:45 9,5 92,3 0 0 316 0,6 938,5
7 San Felipe 06-05-2026 01:30 9,6 91,3 0 0 316 0,6 938,4
6 San Felipe 06-05-2026 01:15 9,8 90,5 0 0 316 0,6 938,4
5 San Felipe 06-05-2026 01:00 10,2 89,5 0 0 316 0,6 938,5
4 San Felipe 06-05-2026 00:45 10,5 88,2 0 0 320 0,6 938,5
3 San Felipe 06-05-2026 00:30 10,9 87,1 0 0 324 0,6 938,5
2 San Felipe 06-05-2026 00:15 11,2 85,7 0 0 324 0,6 938,4
1 San Felipe 06-05-2026 00:00 11,7 84,9 0 0 326 0,6 938,3